STARLINK-38369, 100511

Orbit data source: Space-Track

STARLINK-38369, 100511 is a payload satellite owned by SpaceX/Seattle (US) in LEO that was launched on Wed, 26 Aug 2026 UTC launched from the Air Force Western Test Range (AFWTR). Payload-class satellites include a variety of spacecraft equipped with specific instruments for various scientific and technological missions. These include communications satellites like Starlink; space stations such as the ISS; scientific satellites like the Hubble; Earth observation satellites from companies like Planet Labs, Umbra, and HawkEye 360; GPS; miniature CubeSats for education and research; and military/defense satellites.

Loading next visibility...
Identifier
100511, 2026-197K
Orbit
LEO
Country
Flag of USUS
Related business
Manufacturer
SpaceX/Seattle
Mission
Operational spacecraft
Bus & Motor
STARLINK V2MO, Unknown motor
Mass
575 kg wet, ~530 kg dry
Launch date (UTC)
2026-08-26 (2 weeks ago)
Launch vehicle
Unknown
Launch site
Air Force Western Test Range (AFWTR)
Object type
Payload
Rocket body
Debris
Shape & HBR
BOX + PAN, 17.7 m
Radar Cross Section
RCS unknown

Expand to show TLE details & history
Last TLE update: 4 hours ago

TLE from 4 hours ago
0 STARLINK-38369
1 A0511U 26197K   26251.61568989  .00248087  00000-0  11713-2 0  9994
2 A0511  69.9994 155.5038 0004304 279.3703  80.7013 15.82216286  2118
Epoch: 2026-09-08T14:46Z
TLE epoch observation values (Epoch: 2026-09-08T14:46:35.606Z)
Latitude
0.00005°
Longitude
-53.8241°
Altitude
326.223 km
Speed
7.713 km/s
True Right ascension
10h 22m 00s
True Declination
0° 00' 00"
Sunlit
Object was in daylight at epoch
Visualization orbit readout
Latitude
Unknown
Longitude
Unknown
Altitude
Unknown
Speed
Unknown
Apparent Right ascension
Unknown
Apparent Declination
Unknown
Sunlit
N/A
Visualization observer readout
Local Sidereal Time
10:56:51
Azimuth
Unknown
Elevation
Unknown
Doppler factor
Unknown
Orbital elements
Apogee altitude
324.93 km
Perigee altitude
319.163 km
Semi-major axis
6,700.184 km
Eccentricity
0.00043
Inclination
69.9994°
RAAN
155.5038°
Arg. of periapsis
279.3703°
True anomaly
80.74998°
Mean anomaly
80.7013°
Eccentric anomaly
80.72564°
Mean motion
3.95743 °/min
Orbital period
90.97 mins
BSTAR
0.0011713
Loading maneuver chart data...
Computing Atmospheric mass density...
Loading historical data...
Loading historical data...
Loading historical data...
Loading historical data...
Loading historical data...
Loading historical data...
Loading historical data...

Documentation

Showing up to 5 results
|